Time,TemperatureF,DewpointF,PressureIn,WindDirection,WindDirectionDegrees,WindSpeedMPH,WindSpeedGustMPH,Humidity,HourlyPrecipIn,Conditions,Clouds,dailyrainin,SoftwareType,DateUTC
2013-03-23 00:00:00,34.0,21.6,29.86,SSW,194,0.0,2.7,60,0.00,,,0.00,VWS V13.01,2013-03-23 04:00:00,
2013-03-23 00:05:00,34.0,21.6,29.86,SSE,154,2.7,2.7,60,0.00,,,0.00,VWS V13.01,2013-03-23 04:05:00,
2013-03-23 00:10:00,34.2,21.7,29.86,SW,219,2.7,3.1,60,0.00,,,0.00,VWS V13.01,2013-03-23 04:10:00,
2013-03-23 00:15:00,34.2,21.7,29.86,South,186,0.0,0.0,60,0.00,,,0.00,VWS V13.01,2013-03-23 04:15:00,
2013-03-23 00:20:00,34.2,21.7,29.86,SW,222,0.0,2.7,60,0.00,,,0.00,VWS V13.01,2013-03-23 04:20:00,
2013-03-23 00:25:00,34.2,21.7,29.86,WNW,283,0.0,0.0,60,0.00,,,0.00,VWS V13.01,2013-03-23 04:25:00,
2013-03-23 00:30:00,34.0,21.6,29.86,West,279,0.0,2.2,60,0.00,,,0.00,VWS V13.01,2013-03-23 04:30:00,
2013-03-23 00:35:00,34.2,21.7,29.86,WSW,252,0.0,0.0,60,0.00,,,0.00,VWS V13.01,2013-03-23 04:35:00,
2013-03-23 00:40:00,34.2,21.3,29.86,WSW,252,0.0,0.0,59,0.00,,,0.00,VWS V13.01,2013-03-23 04:40:00,
2013-03-23 00:45:00,34.2,21.7,29.86,WSW,250,0.0,2.2,60,0.00,,,0.00,VWS V13.01,2013-03-23 04:45:00,
2013-03-23 00:50:00,34.3,21.9,29.86,SW,224,0.0,0.0,60,0.00,,,0.00,VWS V13.01,2013-03-23 04:50:00,
2013-03-23 00:55:00,34.3,21.5,29.86,NW,312,0.0,0.0,59,0.00,,,0.00,VWS V13.01,2013-03-23 04:55:00,
2013-03-23 01:00:00,34.2,21.7,29.86,SSW,212,0.0,0.0,60,0.00,,,0.00,VWS V13.01,2013-03-23 05:00:00,
2013-03-23 01:05:00,34.2,21.7,29.86,SW,223,0.0,0.0,60,0.00,,,0.00,VWS V13.01,2013-03-23 05:05:00,
2013-03-23 01:10:00,34.2,21.7,29.86,South,181,0.0,0.0,60,0.00,,,0.00,VWS V13.01,2013-03-23 05:10:00,
2013-03-23 01:15:00,34.2,21.3,29.86,WNW,288,0.0,0.0,59,0.00,,,0.00,VWS V13.01,2013-03-23 05:15:00,
2013-03-23 01:20:00,34.2,21.7,29.86,SSW,206,0.0,0.0,60,0.00,,,0.00,VWS V13.01,2013-03-23 05:20:00,
2013-03-23 01:25:00,34.0,22.0,29.86,SW,220,0.0,0.0,61,0.00,,,0.00,VWS V13.01,2013-03-23 05:25:00,
2013-03-23 01:30:00,34.0,21.6,29.86,SSW,202,0.0,0.0,60,0.00,,,0.00,VWS V13.01,2013-03-23 05:30:00,
2013-03-23 01:35:00,33.8,21.4,29.86,SSW,212,0.0,0.0,60,0.00,,,0.00,VWS V13.01,2013-03-23 05:35:00,
2013-03-23 01:40:00,33.8,21.8,29.86,SSW,212,0.0,0.0,61,0.00,,,0.00,VWS V13.01,2013-03-23 05:40:00,
2013-03-23 01:45:00,33.8,21.4,29.86,SSW,212,0.0,0.0,60,0.00,,,0.00,VWS V13.01,2013-03-23 05:45:00,
2013-03-23 01:50:00,33.6,22.0,29.86,SSW,212,0.0,0.0,62,0.00,,,0.00,VWS V13.01,2013-03-23 05:50:00,
2013-03-23 01:55:00,33.4,21.5,29.86,SSW,212,0.0,0.0,61,0.00,,,0.00,VWS V13.01,2013-03-23 05:55:00,
2013-03-23 02:00:00,33.3,21.7,29.86,SSW,212,0.0,0.0,62,0.00,,,0.00,VWS V13.01,2013-03-23 06:00:00,
2013-03-23 02:05:00,33.1,21.9,29.86,SSW,212,0.0,0.0,63,0.00,,,0.00,VWS V13.01,2013-03-23 06:05:00,
2013-03-23 02:10:00,33.1,21.9,29.86,SSW,212,0.0,0.0,63,0.00,,,0.00,VWS V13.01,2013-03-23 06:10:00,
2013-03-23 02:15:00,32.9,21.7,29.86,SSW,212,0.0,0.0,63,0.00,,,0.00,VWS V13.01,2013-03-23 06:15:00,
2013-03-23 02:20:00,32.9,21.7,29.86,SSW,212,0.0,0.0,63,0.00,,,0.00,VWS V13.01,2013-03-23 06:20:00,
2013-03-23 02:25:00,33.1,21.5,29.86,SSW,212,0.0,0.0,62,0.00,,,0.00,VWS V13.01,2013-03-23 06:25:00,
2013-03-23 02:30:00,33.3,21.3,29.86,SSW,212,0.0,2.2,61,0.00,,,0.00,VWS V13.01,2013-03-23 06:30:00,
2013-03-23 02:35:00,33.4,21.5,29.86,SSW,210,0.0,2.7,61,0.00,,,0.00,VWS V13.01,2013-03-23 06:35:00,
2013-03-23 02:40:00,33.4,21.1,29.86,SSW,203,0.0,2.7,60,0.00,,,0.00,VWS V13.01,2013-03-23 06:40:00,
2013-03-23 02:45:00,33.6,20.8,29.86,West,280,0.0,3.6,59,0.00,,,0.00,VWS V13.01,2013-03-23 06:45:00,
2013-03-23 02:50:00,33.6,20.4,29.86,WNW,289,0.0,3.6,58,0.00,,,0.00,VWS V13.01,2013-03-23 06:50:00,
2013-03-23 02:55:00,33.8,20.2,29.86,WNW,287,0.0,0.0,57,0.00,,,0.00,VWS V13.01,2013-03-23 06:55:00,
2013-03-23 03:00:00,34.0,20.4,29.86,SSE,149,2.7,4.5,57,0.00,,,0.00,VWS V13.01,2013-03-23 07:00:00,
2013-03-23 03:05:00,34.0,20.0,29.86,West,275,0.0,2.7,56,0.00,,,0.00,VWS V13.01,2013-03-23 07:05:00,
2013-03-23 03:10:00,34.0,19.1,29.86,WSW,252,0.0,3.6,54,0.00,,,0.00,VWS V13.01,2013-03-23 07:10:00,
2013-03-23 03:15:00,34.2,19.7,29.86,WSW,252,0.0,0.0,55,0.00,,,0.00,VWS V13.01,2013-03-23 07:15:00,
2013-03-23 03:20:00,34.2,19.3,29.86,West,281,2.7,3.1,54,0.00,,,0.00,VWS V13.01,2013-03-23 07:20:00,
2013-03-23 03:25:00,34.2,19.3,29.86,WSW,252,0.0,3.1,54,0.00,,,0.00,VWS V13.01,2013-03-23 07:25:00,
2013-03-23 03:30:00,34.2,18.8,29.86,WSW,240,2.2,3.6,53,0.00,,,0.00,VWS V13.01,2013-03-23 07:30:00,
2013-03-23 03:35:00,34.2,18.8,29.86,West,262,0.0,2.7,53,0.00,,,0.00,VWS V13.01,2013-03-23 07:35:00,
2013-03-23 03:40:00,34.0,19.1,29.86,West,265,0.0,0.0,54,0.00,,,0.00,VWS V13.01,2013-03-23 07:40:00,
2013-03-23 03:45:00,33.8,19.4,29.83,WSW,256,0.0,2.2,55,0.00,,,0.00,VWS V13.01,2013-03-23 07:45:00,
2013-03-23 03:50:00,33.8,18.9,29.83,WSW,256,0.0,0.0,54,0.00,,,0.00,VWS V13.01,2013-03-23 07:50:00,
2013-03-23 03:55:00,33.6,19.2,29.83,SSE,159,0.0,2.7,55,0.00,,,0.00,VWS V13.01,2013-03-23 07:55:00,
2013-03-23 04:00:00,33.6,19.2,29.83,SW,227,0.0,0.0,55,0.00,,,0.00,VWS V13.01,2013-03-23 08:00:00,
2013-03-23 04:05:00,33.6,19.6,29.83,West,276,0.0,0.0,56,0.00,,,0.00,VWS V13.01,2013-03-23 08:05:00,
2013-03-23 04:10:00,33.6,19.2,29.83,SE,139,2.2,2.7,55,0.00,,,0.00,VWS V13.01,2013-03-23 08:10:00,
2013-03-23 04:14:00,33.6,18.8,29.83,South,174,0.0,3.6,54,0.00,,,0.00,VWS V13.01,2013-03-23 08:14:00,
2013-03-23 04:19:00,33.6,19.2,29.83,South,174,0.0,0.0,55,0.00,,,0.00,VWS V13.01,2013-03-23 08:19:00,
2013-03-23 04:24:00,33.4,19.4,29.83,South,174,0.0,0.0,56,0.00,,,0.00,VWS V13.01,2013-03-23 08:24:00,
2013-03-23 04:29:00,33.4,19.0,29.83,South,178,0.0,2.2,55,0.00,,,0.00,VWS V13.01,2013-03-23 08:29:00,
2013-03-23 04:34:00,33.3,18.9,29.83,South,177,0.0,0.0,55,0.00,,,0.00,VWS V13.01,2013-03-23 08:34:00,
2013-03-23 04:39:00,33.1,19.5,29.83,South,177,0.0,0.0,57,0.00,,,0.00,VWS V13.01,2013-03-23 08:39:00,
2013-03-23 04:44:00,32.7,19.2,29.83,South,177,0.0,0.0,57,0.00,,,0.00,VWS V13.01,2013-03-23 08:44:00,
2013-03-23 04:49:00,32.7,19.6,29.83,SE,133,0.0,3.6,58,0.00,,,0.00,VWS V13.01,2013-03-23 08:49:00,
2013-03-23 04:54:00,32.5,19.4,29.83,SSE,147,0.0,2.7,58,0.00,,,0.00,VWS V13.01,2013-03-23 08:54:00,
2013-03-23 04:59:00,32.4,19.6,29.83,SSE,147,0.0,2.2,59,0.00,,,0.00,VWS V13.01,2013-03-23 08:59:00,
2013-03-23 05:04:00,32.4,20.0,29.83,SSE,147,0.0,0.0,60,0.00,,,0.00,VWS V13.01,2013-03-23 09:04:00,
2013-03-23 05:09:00,32.2,19.9,29.83,SSE,147,0.0,0.0,60,0.00,,,0.00,VWS V13.01,2013-03-23 09:09:00,
2013-03-23 05:14:00,32.2,19.5,29.83,SE,146,0.0,3.1,59,0.00,,,0.00,VWS V13.01,2013-03-23 09:14:00,
2013-03-23 05:19:00,32.2,19.9,29.83,SE,146,0.0,3.1,60,0.00,,,0.00,VWS V13.01,2013-03-23 09:19:00,
2013-03-23 05:24:00,32.2,19.5,29.83,SE,145,0.0,0.0,59,0.00,,,0.00,VWS V13.01,2013-03-23 09:24:00,
2013-03-23 05:29:00,32.2,19.9,29.86,SE,145,0.0,3.1,60,0.00,,,0.00,VWS V13.01,2013-03-23 09:29:00,
2013-03-23 05:34:00,32.2,19.9,29.86,SE,145,0.0,0.0,60,0.00,,,0.00,VWS V13.01,2013-03-23 09:34:00,
2013-03-23 05:39:00,32.0,19.7,29.86,SE,145,0.0,0.0,60,0.00,,,0.00,VWS V13.01,2013-03-23 09:39:00,
2013-03-23 05:44:00,31.8,19.9,29.86,SE,145,0.0,0.0,61,0.00,,,0.00,VWS V13.01,2013-03-23 09:44:00,
2013-03-23 05:49:00,31.5,19.6,29.86,SSE,147,0.0,2.7,61,0.00,,,0.00,VWS V13.01,2013-03-23 09:49:00,
2013-03-23 05:54:00,31.5,19.6,29.86,SSE,147,3.1,3.1,61,0.00,,,0.00,VWS V13.01,2013-03-23 09:54:00,
2013-03-23 05:59:00,31.6,19.8,29.86,SE,141,0.0,3.1,61,0.00,,,0.00,VWS V13.01,2013-03-23 09:59:00,
2013-03-23 06:04:00,31.6,19.8,29.86,SW,223,3.1,3.1,61,0.00,,,0.00,VWS V13.01,2013-03-23 10:04:00,
2013-03-23 06:09:00,31.8,19.9,29.86,SW,223,0.0,0.0,61,0.00,,,0.00,VWS V13.01,2013-03-23 10:09:00,
2013-03-23 06:14:00,31.8,19.5,29.86,SW,222,0.0,2.7,60,0.00,,,0.00,VWS V13.01,2013-03-23 10:14:00,
2013-03-23 06:19:00,31.8,19.5,29.86,SW,216,0.0,2.7,60,0.00,,,0.00,VWS V13.01,2013-03-23 10:19:00,
2013-03-23 06:24:00,32.0,19.7,29.86,SW,226,2.2,3.6,60,0.00,,,0.00,VWS V13.01,2013-03-23 10:24:00,
2013-03-23 06:29:00,32.2,19.5,29.86,WSW,248,2.7,3.6,59,0.00,,,0.00,VWS V13.01,2013-03-23 10:29:00,
2013-03-23 06:34:00,32.4,19.6,29.86,SW,231,2.2,4.0,59,0.00,,,0.00,VWS V13.01,2013-03-23 10:34:00,
2013-03-23 06:39:00,32.4,19.6,29.86,SSE,166,0.0,3.1,59,0.00,,,0.00,VWS V13.01,2013-03-23 10:39:00,
2013-03-23 06:44:00,32.4,19.6,29.86,SSE,153,0.0,3.1,59,0.00,,,0.00,VWS V13.01,2013-03-23 10:44:00,
2013-03-23 06:49:00,32.5,19.8,29.86,SE,143,2.7,4.9,59,0.00,,,0.00,VWS V13.01,2013-03-23 10:49:00,
2013-03-23 06:54:00,32.4,19.6,29.86,SSW,196,2.7,3.6,59,0.00,,,0.00,VWS V13.01,2013-03-23 10:54:00,
2013-03-23 06:59:00,32.4,19.6,29.86,SSW,196,0.0,0.0,59,0.00,,,0.00,VWS V13.01,2013-03-23 10:59:00,
2013-03-23 07:04:00,32.2,19.5,29.86,SW,223,0.0,2.7,59,0.00,,,0.00,VWS V13.01,2013-03-23 11:04:00,
2013-03-23 07:09:00,32.2,19.5,29.86,SSW,193,0.0,2.7,59,0.00,,,0.00,VWS V13.01,2013-03-23 11:09:00,
2013-03-23 07:14:00,32.4,19.6,29.86,SSW,208,2.2,3.1,59,0.00,,,0.00,VWS V13.01,2013-03-23 11:14:00,
2013-03-23 07:19:00,32.4,19.6,29.86,SSW,207,0.0,2.7,59,0.00,,,0.00,VWS V13.01,2013-03-23 11:19:00,
2013-03-23 07:24:00,32.4,19.6,29.86,SSE,161,0.0,2.7,59,0.00,,,0.00,VWS V13.01,2013-03-23 11:24:00,
2013-03-23 07:29:00,32.5,19.8,29.86,SSW,192,0.0,2.2,59,0.00,,,0.00,VWS V13.01,2013-03-23 11:29:00,
2013-03-23 07:34:00,32.5,19.8,29.86,SSE,164,0.0,3.1,59,0.00,,,0.00,VWS V13.01,2013-03-23 11:34:00,
2013-03-23 07:39:00,32.7,20.0,29.86,SSW,196,0.0,2.7,59,0.00,,,0.00,VWS V13.01,2013-03-23 11:39:00,
2013-03-23 07:44:00,32.7,20.0,29.86,SSE,158,0.0,2.7,59,0.00,,,0.00,VWS V13.01,2013-03-23 11:44:00,
2013-03-23 07:49:00,33.1,20.3,29.86,SSW,198,0.0,3.6,59,0.00,,,0.00,VWS V13.01,2013-03-23 11:49:00,
2013-03-23 07:54:00,33.1,20.3,29.86,SSW,200,0.0,2.2,59,0.00,,,0.00,VWS V13.01,2013-03-23 11:54:00,
2013-03-23 07:59:00,33.3,20.5,29.86,SW,216,0.0,3.1,59,0.00,,,0.00,VWS V13.01,2013-03-23 11:59:00,
2013-03-23 08:04:00,33.6,20.4,29.86,SSE,148,0.0,2.7,58,0.00,,,0.00,VWS V13.01,2013-03-23 12:04:00,
2013-03-23 08:09:00,33.8,20.6,29.86,SW,215,0.0,3.1,58,0.00,,,0.00,VWS V13.01,2013-03-23 12:09:00,
2013-03-23 08:14:00,34.0,20.4,29.86,SSW,213,0.0,3.1,57,0.00,,,0.00,VWS V13.01,2013-03-23 12:14:00,
2013-03-23 08:19:00,34.3,20.7,29.86,SSE,164,3.1,3.1,57,0.00,,,0.00,VWS V13.01,2013-03-23 12:19:00,
2013-03-23 08:24:00,34.5,20.9,29.86,South,176,0.0,4.0,57,0.00,,,0.00,VWS V13.01,2013-03-23 12:24:00,
2013-03-23 08:29:00,34.9,21.2,29.86,South,174,0.0,2.7,57,0.00,,,0.00,VWS V13.01,2013-03-23 12:29:00,
2013-03-23 08:34:00,35.1,21.4,29.86,WSW,255,0.0,5.4,57,0.00,,,0.00,VWS V13.01,2013-03-23 12:34:00,
2013-03-23 08:39:00,35.2,21.5,29.86,SSE,158,2.7,4.0,57,0.00,,,0.00,VWS V13.01,2013-03-23 12:39:00,
2013-03-23 08:44:00,35.6,21.0,29.86,SW,221,0.0,4.5,55,0.00,,,0.00,VWS V13.01,2013-03-23 12:44:00,
2013-03-23 08:49:00,35.8,21.2,29.86,SE,141,5.4,5.4,55,0.00,,,0.00,VWS V13.01,2013-03-23 12:49:00,
2013-03-23 08:54:00,36.0,21.4,29.86,SW,226,0.0,4.9,55,0.00,,,0.00,VWS V13.01,2013-03-23 12:54:00,
2013-03-23 08:59:00,36.3,22.1,29.86,ESE,114,0.0,4.0,56,0.00,,,0.00,VWS V13.01,2013-03-23 12:59:00,
2013-03-23 09:04:00,36.3,21.3,29.86,SSW,209,2.7,4.0,54,0.00,,,0.00,VWS V13.01,2013-03-23 13:04:00,
2013-03-23 09:09:00,36.7,21.6,29.86,ESE,102,2.7,3.6,54,0.00,,,0.00,VWS V13.01,2013-03-23 13:09:00,
2013-03-23 09:14:00,36.9,21.3,29.86,West,273,2.2,4.0,53,0.00,,,0.00,VWS V13.01,2013-03-23 13:14:00,
2013-03-23 09:19:00,37.0,21.5,29.86,SSE,168,4.9,4.9,53,0.00,,,0.00,VWS V13.01,2013-03-23 13:19:00,
2013-03-23 09:24:00,37.0,21.5,29.86,SW,225,3.1,6.3,53,0.00,,,0.00,VWS V13.01,2013-03-23 13:24:00,
2013-03-23 09:29:00,37.4,21.4,29.86,NW,320,2.2,5.4,52,0.00,,,0.00,VWS V13.01,2013-03-23 13:29:00,
2013-03-23 09:34:00,37.6,21.6,29.86,SSW,201,3.1,7.2,52,0.00,,,0.00,VWS V13.01,2013-03-23 13:34:00,
2013-03-23 09:39:00,37.8,21.3,29.86,SW,227,3.1,3.6,51,0.00,,,0.00,VWS V13.01,2013-03-23 13:39:00,
2013-03-23 09:44:00,37.9,22.4,29.86,SW,220,2.7,4.0,53,0.00,,,0.00,VWS V13.01,2013-03-23 13:44:00,
2013-03-23 09:49:00,38.1,21.6,29.86,West,273,5.8,5.8,51,0.00,,,0.00,VWS V13.01,2013-03-23 13:49:00,
2013-03-23 09:54:00,38.5,21.9,29.86,SW,224,4.0,4.0,51,0.00,,,0.00,VWS V13.01,2013-03-23 13:54:00,
2013-03-23 09:59:00,38.7,22.1,29.86,SW,228,0.0,4.0,51,0.00,,,0.00,VWS V13.01,2013-03-23 13:59:00,
2013-03-23 10:04:00,38.8,21.8,29.86,SW,221,3.6,6.3,50,0.00,,,0.00,VWS V13.01,2013-03-23 14:04:00,
2013-03-23 10:09:00,38.8,21.8,29.86,West,274,0.0,0.0,50,0.00,,,0.00,VWS V13.01,2013-03-23 14:09:00,
2013-03-23 10:14:00,39.2,22.1,29.86,West,276,2.2,7.2,50,0.00,,,0.00,VWS V13.01,2013-03-23 14:14:00,
2013-03-23 10:19:00,39.4,22.3,29.86,SSW,201,2.7,5.4,50,0.00,,,0.00,VWS V13.01,2013-03-23 14:19:00,
2013-03-23 10:24:00,39.7,22.6,29.86,NNW,336,2.7,3.6,50,0.00,,,0.00,VWS V13.01,2013-03-23 14:24:00,
2013-03-23 10:29:00,39.7,22.6,29.86,ESE,122,3.1,4.9,50,0.00,,,0.00,VWS V13.01,2013-03-23 14:29:00,
2013-03-23 10:34:00,39.4,21.8,29.86,SW,225,5.4,8.3,49,0.00,,,0.00,VWS V13.01,2013-03-23 14:34:00,
2013-03-23 10:39:00,39.9,22.3,29.86,SW,226,0.0,5.4,49,0.00,,,0.00,VWS V13.01,2013-03-23 14:39:00,
2013-03-23 10:44:00,40.8,23.6,29.86,SW,224,2.7,3.1,50,0.00,,,0.00,VWS V13.01,2013-03-23 14:44:00,
2013-03-23 10:49:00,41.2,23.0,29.86,SSE,153,4.0,4.0,48,0.00,,,0.00,VWS V13.01,2013-03-23 14:49:00,
2013-03-23 10:54:00,41.4,23.2,29.86,SW,226,3.1,5.4,48,0.00,,,0.00,VWS V13.01,2013-03-23 14:54:00,
2013-03-23 10:59:00,41.4,23.2,29.86,West,260,2.2,4.9,48,0.00,,,0.00,VWS V13.01,2013-03-23 14:59:00,
2013-03-23 11:04:00,41.5,23.3,29.83,SW,226,2.7,4.9,48,0.00,,,0.00,VWS V13.01,2013-03-23 15:04:00,
2013-03-23 11:09:00,41.7,23.5,29.83,SW,220,2.7,4.9,48,0.00,,,0.00,VWS V13.01,2013-03-23 15:09:00,
2013-03-23 11:14:00,42.3,23.5,29.83,SW,226,3.6,6.3,47,0.00,,,0.00,VWS V13.01,2013-03-23 15:14:00,
2013-03-23 11:19:00,42.4,23.6,29.83,North,355,2.7,4.9,47,0.00,,,0.00,VWS V13.01,2013-03-23 15:19:00,
2013-03-23 11:24:00,42.4,23.6,29.83,South,182,3.1,4.0,47,0.00,,,0.00,VWS V13.01,2013-03-23 15:24:00,
2013-03-23 11:29:00,42.8,24.0,29.83,WNW,301,3.1,5.8,47,0.00,,,0.00,VWS V13.01,2013-03-23 15:29:00,
2013-03-23 11:34:00,42.4,23.6,29.83,SW,229,3.1,5.4,47,0.00,,,0.00,VWS V13.01,2013-03-23 15:34:00,
2013-03-23 11:39:00,42.8,24.0,29.83,SW,228,2.7,6.3,47,0.00,,,0.00,VWS V13.01,2013-03-23 15:39:00,
2013-03-23 11:44:00,43.2,23.8,29.83,NW,315,3.6,4.9,46,0.00,,,0.00,VWS V13.01,2013-03-23 15:44:00,
2013-03-23 11:49:00,43.3,24.0,29.86,SE,131,3.1,5.8,46,0.00,,,0.00,VWS V13.01,2013-03-23 15:49:00,
2013-03-23 11:54:00,43.5,24.1,29.86,SW,227,3.6,3.6,46,0.00,,,0.00,VWS V13.01,2013-03-23 15:54:00,
2013-03-23 11:59:00,43.3,24.0,29.86,South,174,2.7,5.4,46,0.00,,,0.00,VWS V13.01,2013-03-23 15:59:00,
2013-03-23 12:04:00,43.3,24.0,29.86,West,259,2.7,5.4,46,0.00,,,0.00,VWS V13.01,2013-03-23 16:04:00,
2013-03-23 12:09:00,44.1,24.6,29.86,SE,134,3.6,5.8,46,0.00,,,0.00,VWS V13.01,2013-03-23 16:09:00,
2013-03-23 12:14:00,44.6,24.6,29.86,NW,314,2.7,4.9,45,0.00,,,0.00,VWS V13.01,2013-03-23 16:14:00,
2013-03-23 12:19:00,44.8,25.3,29.86,West,268,3.6,4.9,46,0.00,,,0.00,VWS V13.01,2013-03-23 16:19:00,
2013-03-23 12:24:00,44.1,24.6,29.86,SW,232,2.7,7.6,46,0.00,,,0.00,VWS V13.01,2013-03-23 16:24:00,
2013-03-23 12:29:00,44.8,25.3,29.86,SSW,213,2.7,4.0,46,0.00,,,0.00,VWS V13.01,2013-03-23 16:29:00,
2013-03-23 12:34:00,45.1,25.1,29.83,West,264,3.1,4.0,45,0.00,,,0.00,VWS V13.01,2013-03-23 16:34:00,
2013-03-23 12:39:00,45.1,25.1,29.83,WSW,256,2.7,3.6,45,0.00,,,0.00,VWS V13.01,2013-03-23 16:39:00,
2013-03-23 12:44:00,44.6,24.6,29.83,SW,228,4.5,5.8,45,0.00,,,0.00,VWS V13.01,2013-03-23 16:44:00,
2013-03-23 12:49:00,43.9,24.5,29.83,SSW,196,2.7,6.7,46,0.00,,,0.00,VWS V13.01,2013-03-23 16:49:00,
2013-03-23 12:54:00,44.1,24.6,29.83,NW,308,0.0,4.0,46,0.00,,,0.00,VWS V13.01,2013-03-23 16:54:00,
2013-03-23 12:59:00,44.1,24.6,29.83,SSW,198,5.8,5.8,46,0.00,,,0.00,VWS V13.01,2013-03-23 16:59:00,
2013-03-23 13:04:00,43.5,24.1,29.83,SW,218,0.0,7.6,46,0.00,,,0.00,VWS V13.01,2013-03-23 17:04:00,
2013-03-23 13:09:00,44.1,24.1,29.83,SSE,150,3.6,8.7,45,0.00,,,0.00,VWS V13.01,2013-03-23 17:09:00,
2013-03-23 13:14:00,44.1,24.1,29.83,West,266,3.1,13.2,45,0.00,,,0.00,VWS V13.01,2013-03-23 17:14:00,
2013-03-23 13:19:00,43.9,24.5,29.83,West,279,3.1,5.4,46,0.00,,,0.00,VWS V13.01,2013-03-23 17:19:00,
2013-03-23 13:24:00,44.8,24.8,29.83,WNW,298,3.1,5.4,45,0.00,,,0.00,VWS V13.01,2013-03-23 17:24:00,
2013-03-23 13:29:00,44.6,24.6,29.83,South,181,3.6,7.6,45,0.00,,,0.00,VWS V13.01,2013-03-23 17:29:00,
2013-03-23 13:34:00,44.1,24.6,29.83,WNW,283,2.7,6.3,46,0.00,,,0.00,VWS V13.01,2013-03-23 17:34:00,
2013-03-23 13:39:00,44.6,24.6,29.83,SW,226,0.0,8.3,45,0.00,,,0.00,VWS V13.01,2013-03-23 17:39:00,
2013-03-23 13:44:00,45.3,25.2,29.83,SW,233,5.4,7.6,45,0.00,,,0.00,VWS V13.01,2013-03-23 17:44:00,
2013-03-23 13:49:00,44.8,24.8,29.83,SSW,206,5.8,8.7,45,0.00,,,0.00,VWS V13.01,2013-03-23 17:49:00,
2013-03-23 13:54:00,45.3,25.2,29.83,SSE,166,5.4,6.3,45,0.00,,,0.00,VWS V13.01,2013-03-23 17:54:00,
2013-03-23 13:59:00,45.5,25.4,29.83,SSW,205,3.6,7.6,45,0.00,,,0.00,VWS V13.01,2013-03-23 17:59:00,
2013-03-23 14:04:00,45.5,25.4,29.83,WSW,255,2.2,5.4,45,0.00,,,0.00,VWS V13.01,2013-03-23 18:04:00,
2013-03-23 14:09:00,46.0,25.9,29.83,SW,223,2.7,4.0,45,0.00,,,0.00,VWS V13.01,2013-03-23 18:09:00,
2013-03-23 14:14:00,45.9,25.7,29.83,SE,135,4.9,4.9,45,0.00,,,0.00,VWS V13.01,2013-03-23 18:14:00,
2013-03-23 14:19:00,45.5,25.4,29.80,WNW,287,4.0,6.3,45,0.00,,,0.00,VWS V13.01,2013-03-23 18:19:00,
2013-03-23 14:24:00,45.5,25.4,29.80,SW,219,4.5,6.7,45,0.00,,,0.00,VWS V13.01,2013-03-23 18:24:00,
2013-03-23 14:29:00,45.9,25.7,29.80,NW,325,0.0,5.4,45,0.00,,,0.00,VWS V13.01,2013-03-23 18:29:00,
2013-03-23 14:34:00,46.2,26.1,29.80,North,354,2.2,3.1,45,0.00,,,0.00,VWS V13.01,2013-03-23 18:34:00,
2013-03-23 14:39:00,45.9,25.2,29.80,SSW,193,6.3,13.2,44,0.00,,,0.00,VWS V13.01,2013-03-23 18:39:00,
2013-03-23 14:44:00,45.5,25.4,29.80,SSW,194,2.7,6.3,45,0.00,,,0.00,VWS V13.01,2013-03-23 18:44:00,
2013-03-23 14:49:00,45.5,24.9,29.80,WSW,257,6.3,6.3,44,0.00,,,0.00,VWS V13.01,2013-03-23 18:49:00,
2013-03-23 14:54:00,46.2,25.5,29.80,SSW,202,4.5,8.3,44,0.00,,,0.00,VWS V13.01,2013-03-23 18:54:00,
2013-03-23 14:59:00,46.4,25.7,29.80,West,270,0.0,4.0,44,0.00,,,0.00,VWS V13.01,2013-03-23 18:59:00,
2013-03-23 15:04:00,46.4,25.7,29.80,NNW,335,2.2,4.0,44,0.00,,,0.00,VWS V13.01,2013-03-23 19:04:00,
2013-03-23 15:09:00,47.1,26.3,29.80,SW,232,4.0,4.9,44,0.00,,,0.00,VWS V13.01,2013-03-23 19:09:00,
2013-03-23 15:14:00,46.4,25.7,29.80,SW,233,4.0,6.7,44,0.00,,,0.00,VWS V13.01,2013-03-23 19:14:00,
2013-03-23 15:19:00,45.9,25.7,29.80,WNW,294,3.6,6.3,45,0.00,,,0.00,VWS V13.01,2013-03-23 19:19:00,
2013-03-23 15:24:00,46.0,25.4,29.80,SW,230,3.6,7.6,44,0.00,,,0.00,VWS V13.01,2013-03-23 19:24:00,
2013-03-23 15:29:00,46.2,25.5,29.80,WSW,252,3.6,5.4,44,0.00,,,0.00,VWS V13.01,2013-03-23 19:29:00,
2013-03-23 15:34:00,46.0,25.4,29.80,SSW,207,5.4,5.4,44,0.00,,,0.00,VWS V13.01,2013-03-23 19:34:00,
2013-03-23 15:39:00,46.8,26.0,29.80,West,264,6.3,6.3,44,0.00,,,0.00,VWS V13.01,2013-03-23 19:39:00,
2013-03-23 15:44:00,46.8,26.0,29.80,WNW,284,2.2,6.3,44,0.00,,,0.00,VWS V13.01,2013-03-23 19:44:00,
2013-03-23 15:49:00,46.8,26.0,29.80,NNW,330,2.2,5.4,44,0.00,,,0.00,VWS V13.01,2013-03-23 19:49:00,
2013-03-23 15:54:00,46.8,26.0,29.80,SSE,148,3.1,3.6,44,0.00,,,0.00,VWS V13.01,2013-03-23 19:54:00,
2013-03-23 15:59:00,46.8,26.0,29.80,SSW,192,4.9,7.2,44,0.00,,,0.00,VWS V13.01,2013-03-23 19:59:00,
2013-03-23 16:04:00,46.9,26.2,29.80,WSW,253,4.0,6.3,44,0.00,,,0.00,VWS V13.01,2013-03-23 20:04:00,
2013-03-23 16:09:00,46.9,24.5,29.80,North,357,3.6,5.8,41,0.00,,,0.00,VWS V13.01,2013-03-23 20:09:00,
2013-03-23 16:14:00,47.1,26.3,29.80,SW,228,2.2,4.0,44,0.00,,,0.00,VWS V13.01,2013-03-23 20:14:00,
2013-03-23 16:19:00,47.7,26.8,29.80,SE,126,2.2,5.8,44,0.00,,,0.00,VWS V13.01,2013-03-23 20:19:00,
2013-03-23 16:24:00,47.7,25.1,29.80,WNW,284,0.0,7.6,41,0.00,,,0.00,VWS V13.01,2013-03-23 20:24:00,
2013-03-23 16:29:00,46.8,24.3,29.80,NW,306,3.1,4.9,41,0.00,,,0.00,VWS V13.01,2013-03-23 20:29:00,
2013-03-23 16:34:00,46.4,25.7,29.80,West,267,3.1,5.8,44,0.00,,,0.00,VWS V13.01,2013-03-23 20:34:00,
2013-03-23 16:39:00,46.8,26.0,29.80,WSW,258,3.6,7.2,44,0.00,,,0.00,VWS V13.01,2013-03-23 20:39:00,
2013-03-23 16:44:00,47.3,24.8,29.80,West,266,2.2,6.3,41,0.00,,,0.00,VWS V13.01,2013-03-23 20:44:00,
2013-03-23 16:49:00,47.5,25.0,29.80,NW,321,0.0,6.3,41,0.00,,,0.00,VWS V13.01,2013-03-23 20:49:00,
2013-03-23 16:54:00,47.8,27.0,29.80,WSW,252,3.1,5.8,44,0.00,,,0.00,VWS V13.01,2013-03-23 20:54:00,
2013-03-23 16:59:00,47.8,25.3,29.80,NW,314,3.1,6.3,41,0.00,,,0.00,VWS V13.01,2013-03-23 20:59:00,
2013-03-23 17:04:00,47.3,24.8,29.80,SW,231,0.0,6.3,41,0.00,,,0.00,VWS V13.01,2013-03-23 21:04:00,
2013-03-23 17:09:00,46.4,24.0,29.80,SW,234,2.7,4.9,41,0.00,,,0.00,VWS V13.01,2013-03-23 21:09:00,
2013-03-23 17:14:00,46.2,24.4,29.80,West,278,0.0,4.0,42,0.00,,,0.00,VWS V13.01,2013-03-23 21:14:00,
2013-03-23 17:19:00,46.2,24.4,29.80,WSW,245,2.7,5.4,42,0.00,,,0.00,VWS V13.01,2013-03-23 21:19:00,
2013-03-23 17:24:00,46.2,24.4,29.80,NNW,328,0.0,3.6,42,0.00,,,0.00,VWS V13.01,2013-03-23 21:24:00,
2013-03-23 17:29:00,45.5,23.8,29.80,WSW,258,6.3,6.3,42,0.00,,,0.00,VWS V13.01,2013-03-23 21:29:00,
2013-03-23 17:34:00,45.3,23.6,29.80,WSW,242,0.0,6.3,42,0.00,,,0.00,VWS V13.01,2013-03-23 21:34:00,
2013-03-23 17:39:00,45.3,23.6,29.80,WSW,251,2.7,4.9,42,0.00,,,0.00,VWS V13.01,2013-03-23 21:39:00,
2013-03-23 17:44:00,45.1,23.4,29.80,WSW,249,0.0,5.4,42,0.00,,,0.00,VWS V13.01,2013-03-23 21:44:00,
2013-03-23 17:49:00,45.1,23.4,29.83,ENE,75,2.7,3.6,42,0.00,,,0.00,VWS V13.01,2013-03-23 21:49:00,
2013-03-23 17:54:00,45.1,23.4,29.83,South,184,2.7,4.0,42,0.00,,,0.00,VWS V13.01,2013-03-23 21:54:00,
2013-03-23 17:59:00,45.1,23.4,29.83,SSW,193,0.0,5.8,42,0.00,,,0.00,VWS V13.01,2013-03-23 21:59:00,
2013-03-23 18:04:00,45.1,23.4,29.83,SW,216,2.2,5.8,42,0.00,,,0.00,VWS V13.01,2013-03-23 22:04:00,
2013-03-23 18:09:00,45.1,23.4,29.83,NW,325,2.7,3.6,42,0.00,,,0.00,VWS V13.01,2013-03-23 22:09:00,
2013-03-23 18:14:00,44.8,23.1,29.83,WSW,246,2.7,4.9,42,0.00,,,0.00,VWS V13.01,2013-03-23 22:14:00,
2013-03-23 18:19:00,44.4,24.4,29.83,SW,232,2.2,3.6,45,0.00,,,0.00,VWS V13.01,2013-03-23 22:19:00,
2013-03-23 18:24:00,44.1,22.5,29.83,WNW,290,3.1,7.6,42,0.00,,,0.00,VWS V13.01,2013-03-23 22:24:00,
2013-03-23 18:29:00,43.9,23.9,29.83,SW,232,0.0,4.0,45,0.00,,,0.00,VWS V13.01,2013-03-23 22:29:00,
2013-03-23 18:34:00,43.7,22.1,29.83,South,169,3.1,4.0,42,0.00,,,0.00,VWS V13.01,2013-03-23 22:34:00,
2013-03-23 18:39:00,43.3,21.8,29.83,West,272,0.0,2.7,42,0.00,,,0.00,VWS V13.01,2013-03-23 22:39:00,
2013-03-23 18:44:00,43.0,23.1,29.83,WNW,289,2.2,3.6,45,0.00,,,0.00,VWS V13.01,2013-03-23 22:44:00,
2013-03-23 18:49:00,42.8,23.0,29.83,SW,225,0.0,3.1,45,0.00,,,0.00,VWS V13.01,2013-03-23 22:49:00,
2013-03-23 18:54:00,42.6,21.7,29.83,SW,226,0.0,2.7,43,0.00,,,0.00,VWS V13.01,2013-03-23 22:54:00,
2013-03-23 18:59:00,42.4,21.5,29.83,NNW,331,2.2,4.0,43,0.00,,,0.00,VWS V13.01,2013-03-23 22:59:00,
2013-03-23 19:04:00,42.3,21.4,29.83,NNW,334,4.9,4.9,43,0.00,,,0.00,VWS V13.01,2013-03-23 23:04:00,
2013-03-23 19:09:00,42.3,22.5,29.83,ESE,122,3.6,3.6,45,0.00,,,0.00,VWS V13.01,2013-03-23 23:09:00,
2013-03-23 19:14:00,41.9,21.0,29.83,SW,219,0.0,4.0,43,0.00,,,0.00,VWS V13.01,2013-03-23 23:14:00,
2013-03-23 19:19:00,41.7,20.9,29.86,NNW,346,3.6,4.0,43,0.00,,,0.00,VWS V13.01,2013-03-23 23:19:00,
2013-03-23 19:24:00,41.7,20.9,29.86,SW,235,0.0,3.6,43,0.00,,,0.00,VWS V13.01,2013-03-23 23:24:00,
2013-03-23 19:29:00,41.5,20.7,29.86,SW,229,0.0,3.6,43,0.00,,,0.00,VWS V13.01,2013-03-23 23:29:00,
2013-03-23 19:34:00,41.5,21.8,29.86,SW,225,0.0,2.7,45,0.00,,,0.00,VWS V13.01,2013-03-23 23:34:00,
2013-03-23 19:39:00,41.2,21.5,29.86,South,186,0.0,2.2,45,0.00,,,0.00,VWS V13.01,2013-03-23 23:39:00,
2013-03-23 19:44:00,41.0,20.2,29.86,WSW,256,0.0,4.0,43,0.00,,,0.00,VWS V13.01,2013-03-23 23:44:00,
2013-03-23 19:49:00,41.0,21.3,29.86,SW,231,0.0,2.7,45,0.00,,,0.00,VWS V13.01,2013-03-23 23:49:00,
2013-03-23 19:54:00,40.8,20.1,29.86,NNW,327,0.0,4.0,43,0.00,,,0.00,VWS V13.01,2013-03-23 23:54:00,
2013-03-23 19:59:00,40.8,20.1,29.86,West,274,0.0,4.5,43,0.00,,,0.00,VWS V13.01,2013-03-23 23:59:00,
2013-03-23 20:04:00,40.8,21.1,29.86,SW,230,0.0,6.3,45,0.00,,,0.00,VWS V13.01,2013-03-24 00:04:00,
2013-03-23 20:08:00,40.6,21.0,29.86,SW,230,0.0,3.1,45,0.00,,,0.00,VWS V13.01,2013-03-24 00:08:00,
2013-03-23 20:14:00,40.5,20.8,29.86,SW,221,0.0,3.1,45,0.00,,,0.00,VWS V13.01,2013-03-24 00:14:00,
2013-03-23 20:19:00,40.3,20.6,29.86,WNW,296,0.0,3.1,45,0.00,,,0.00,VWS V13.01,2013-03-24 00:19:00,
2013-03-23 20:24:00,40.3,20.6,29.86,WSW,247,0.0,4.0,45,0.00,,,0.00,VWS V13.01,2013-03-24 00:24:00,
2013-03-23 20:29:00,40.3,20.6,29.86,West,260,0.0,3.1,45,0.00,,,0.00,VWS V13.01,2013-03-24 00:29:00,
2013-03-23 20:34:00,40.3,20.6,29.89,West,276,0.0,5.8,45,0.00,,,0.00,VWS V13.01,2013-03-24 00:34:00,
2013-03-23 20:39:00,40.1,20.5,29.89,WSW,246,4.0,4.9,45,0.00,,,0.00,VWS V13.01,2013-03-24 00:39:00,
2013-03-23 20:44:00,40.1,20.5,29.89,West,277,0.0,3.1,45,0.00,,,0.00,VWS V13.01,2013-03-24 00:44:00,
2013-03-23 20:49:00,39.9,20.3,29.89,West,279,0.0,3.6,45,0.00,,,0.00,VWS V13.01,2013-03-24 00:49:00,
2013-03-23 20:54:00,39.7,20.1,29.89,NNW,336,0.0,0.0,45,0.00,,,0.00,VWS V13.01,2013-03-24 00:54:00,
2013-03-23 20:59:00,39.7,20.1,29.89,West,278,0.0,0.0,45,0.00,,,0.00,VWS V13.01,2013-03-24 00:59:00,
2013-03-23 21:04:00,39.6,20.5,29.89,West,278,0.0,0.0,46,0.00,,,0.00,VWS V13.01,2013-03-24 01:04:00,
2013-03-23 21:09:00,39.2,20.2,29.89,SSE,150,2.7,2.7,46,0.00,,,0.00,VWS V13.01,2013-03-24 01:09:00,
2013-03-23 21:14:00,39.0,20.0,29.89,SSE,150,0.0,0.0,46,0.00,,,0.00,VWS V13.01,2013-03-24 01:14:00,
2013-03-23 21:19:00,38.8,19.8,29.89,SSE,150,0.0,0.0,46,0.00,,,0.00,VWS V13.01,2013-03-24 01:19:00,
2013-03-23 21:24:00,38.5,19.5,29.89,SSE,150,0.0,0.0,46,0.00,,,0.00,VWS V13.01,2013-03-24 01:24:00,
2013-03-23 21:29:00,38.5,19.5,29.89,North,349,0.0,3.1,46,0.00,,,0.00,VWS V13.01,2013-03-24 01:29:00,
2013-03-23 21:34:00,38.5,19.5,29.89,North,349,0.0,0.0,46,0.00,,,0.00,VWS V13.01,2013-03-24 01:34:00,
2013-03-23 21:39:00,38.3,19.9,29.89,North,349,0.0,0.0,47,0.00,,,0.00,VWS V13.01,2013-03-24 01:39:00,
2013-03-23 21:44:00,38.3,19.4,29.89,NNW,343,0.0,0.0,46,0.00,,,0.00,VWS V13.01,2013-03-24 01:44:00,
2013-03-23 21:49:00,38.3,19.4,29.89,NNW,343,0.0,0.0,46,0.00,,,0.00,VWS V13.01,2013-03-24 01:49:00,
2013-03-23 21:53:00,38.3,19.4,29.89,NW,304,0.0,3.6,46,0.00,,,0.00,VWS V13.01,2013-03-24 01:53:00,
2013-03-23 21:58:00,38.3,19.4,29.89,WNW,296,0.0,2.2,46,0.00,,,0.00,VWS V13.01,2013-03-24 01:58:00,
2013-03-23 22:03:00,38.1,19.7,29.89,WNW,296,0.0,0.0,47,0.00,,,0.00,VWS V13.01,2013-03-24 02:03:00,
2013-03-23 22:08:00,38.1,19.7,29.89,WNW,296,0.0,0.0,47,0.00,,,0.00,VWS V13.01,2013-03-24 02:08:00,
2013-03-23 22:13:00,37.9,19.5,29.89,WNW,296,0.0,0.0,47,0.00,,,0.00,VWS V13.01,2013-03-24 02:13:00,
2013-03-23 22:18:00,37.8,19.4,29.89,NW,323,0.0,2.2,47,0.00,,,0.00,VWS V13.01,2013-03-24 02:18:00,
2013-03-23 22:23:00,37.9,19.5,29.89,West,272,2.7,4.0,47,0.00,,,0.00,VWS V13.01,2013-03-24 02:23:00,
2013-03-23 22:28:00,37.9,19.5,29.89,NW,308,0.0,3.1,47,0.00,,,0.00,VWS V13.01,2013-03-24 02:28:00,
2013-03-23 22:33:00,37.9,19.5,29.89,SE,133,0.0,3.6,47,0.00,,,0.00,VWS V13.01,2013-03-24 02:33:00,
2013-03-23 22:38:00,37.8,19.9,29.89,NNW,341,0.0,4.0,48,0.00,,,0.00,VWS V13.01,2013-03-24 02:38:00,
2013-03-23 22:43:00,37.8,19.9,29.89,ESE,118,0.0,0.0,48,0.00,,,0.00,VWS V13.01,2013-03-24 02:43:00,
2013-03-23 22:48:00,37.8,19.9,29.92,NNE,33,0.0,2.2,48,0.00,,,0.00,VWS V13.01,2013-03-24 02:48:00,
2013-03-23 22:53:00,37.6,19.2,29.92,NNW,330,2.2,3.1,47,0.00,,,0.00,VWS V13.01,2013-03-24 02:53:00,
2013-03-23 22:58:00,37.8,19.4,29.92,WSW,244,0.0,2.7,47,0.00,,,0.00,VWS V13.01,2013-03-24 02:58:00,
2013-03-23 23:03:00,37.6,19.7,29.92,WSW,248,0.0,3.6,48,0.00,,,0.00,VWS V13.01,2013-03-24 03:03:00,
2013-03-23 23:08:00,37.6,19.2,29.92,WSW,248,0.0,0.0,47,0.00,,,0.00,VWS V13.01,2013-03-24 03:08:00,
2013-03-23 23:13:00,37.4,19.0,29.92,WSW,238,0.0,3.1,47,0.00,,,0.00,VWS V13.01,2013-03-24 03:13:00,
2013-03-23 23:18:00,37.4,19.0,29.92,WSW,244,0.0,3.6,47,0.00,,,0.00,VWS V13.01,2013-03-24 03:18:00,
2013-03-23 23:23:00,37.2,19.4,29.92,West,276,0.0,3.1,48,0.00,,,0.00,VWS V13.01,2013-03-24 03:23:00,
2013-03-23 23:28:00,37.2,19.4,29.92,West,272,0.0,3.1,48,0.00,,,0.00,VWS V13.01,2013-03-24 03:28:00,
2013-03-23 23:33:00,37.2,19.4,29.92,NW,309,0.0,0.0,48,0.00,,,0.00,VWS V13.01,2013-03-24 03:33:00,
2013-03-23 23:38:00,37.0,19.2,29.92,West,263,0.0,2.2,48,0.00,,,0.00,VWS V13.01,2013-03-24 03:38:00,
2013-03-23 23:43:00,37.0,19.2,29.92,West,263,0.0,0.0,48,0.00,,,0.00,VWS V13.01,2013-03-24 03:43:00,
2013-03-23 23:48:00,36.9,19.0,29.92,West,275,0.0,2.2,48,0.00,,,0.00,VWS V13.01,2013-03-24 03:48:00,
2013-03-23 23:53:00,36.9,19.0,29.92,North,2,2.7,3.6,48,0.00,,,0.00,VWS V13.01,2013-03-24 03:53:00,
2013-03-23 23:58:00,36.9,19.0,29.92,North,2,2.2,4.9,48,0.00,,,0.00,VWS V13.01,2013-03-24 03:58:00,